Home > Weather > Kings County > Past weeks

Flag for Canada Weather for the Past 2 Weeks in Kings County, Nova Scotia, Canada

Now
46 °F

Cool.


Feels Like: 40 °F
Forecast: 31 / 56 °F
Wind: 10 mph from Southeast

Location: McNabs Island - AUT

Current Time: May 1, 2016 at 12:34:46 PM

Latest Report: May 1, 2016 at 12:00 PM


Visibility: N/A

Pressure: 30.29 "Hg

Humidity: 77%

Dew Point: 39 °F

Location of Kings CountyLocation

Historic Weather in Kings County — Graph

°F

Kings County Temperature Yesterday

Maximum temperature yesterday: 49 °F (at 11:00 AM)
Minimum temperature yesterday: 34 °F (at 4:00 AM)
Average temperature yesterday: 40 °F

High & Low Weather Summary for the Past Weeks

 TemperatureHumidityPressure
High71 °F (Apr 22, 4:00 PM)100% (Apr 26, 8:00 PM)30.46 "Hg (Apr 26, 8:00 PM)
Low29 °F (Apr 19, 7:00 AM)26% (Apr 21, 5:00 PM)29.65 "Hg (Apr 21, 6:00 PM)
Average41 °F66%29.98 "Hg
* Reported Apr 16 11:00 AM — May 1 11:00 AM, Kings County, Weather by CustomWeather, © 2016

Note: Actual official high and low records may vary slightly from our data, if they occured in-between our weather recording intervals... More about our weather records

Advertising

Kings County Weather History for the Previous 24 Hours

Scroll right to see more
 ConditionsComfort  
Time TempWeatherWind HumidityBarometerVisibility
11:00 AM
Sun, May 1
42 °FQuite cool.10 mph87%30.30 "HgN/A
10:00 AM43 °FQuite cool.10 mph85%30.29 "HgN/A
9:00 AM43 °FQuite cool.5 mph78%30.28 "HgN/A
8:00 AM42 °FQuite cool.2 mph68%30.27 "HgN/A
7:00 AM37 °FChilly.2 mph84%30.26 "HgN/A
6:00 AM36 °FChilly.5 mph90%30.25 "HgN/A
5:00 AM35 °FChilly.3 mph87%30.25 "HgN/A
4:00 AM35 °FChilly.3 mph88%30.24 "HgN/A
3:00 AM35 °FChilly.5 mph86%30.24 "HgN/A
2:00 AM36 °FChilly.5 mph93%30.25 "HgN/A
1:00 AM37 °FChilly.2 mph78%30.26 "HgN/A
12:00 AM35 °FChilly.2 mph85%30.26 "HgN/A
11:00 PM
Sat, Apr 30
36 °FChilly.1 mph81%30.26 "HgN/A
10:00 PM39 °FChilly.2 mph63%30.24 "HgN/A
9:00 PM40 °FQuite cool.3 mph67%30.22 "HgN/A
8:00 PM44 °FQuite cool.7 mph56%30.21 "HgN/A
7:00 PM48 °FCool.12 mph43%30.18 "HgN/A
6:00 PM45 °FCool.12 mph66%30.17 "HgN/A
5:00 PM45 °FQuite cool.13 mph69%30.16 "HgN/A
4:00 PM43 °FQuite cool.16 mph74%30.16 "HgN/A
3:00 PM46 °FCool.14 mph55%30.17 "HgN/A
2:00 PM44 °FQuite cool.15 mph58%30.18 "HgN/A
1:00 PM44 °FQuite cool.14 mph68%30.19 "HgN/A
12:00 PM45 °FQuite cool.8 mph70%30.20 "HgN/A
Weather by CustomWeather, © 2016

See weather overviewHow to use our weather pages